Wise, VA

7:57 PM EDT on April 23, 2018 (GMT -0400)
Lonesome Pine

Weather History for KLNP - September, 2011

Change the Weather History Date:

Monday, September 26, 2011

  Actual Average Record
Temperature  
Mean Temperature 70 °F -  
Max Temperature 78 °F 69 °F 122 °F (1997)
Min Temperature 62 °F 49 °F 32 °F (2001)
Cooling Degree Days 5    
Growing Degree Days 20 (Base 50)    
Moisture  
Dew Point 61 °F    
Average Humidity 76    
Maximum Humidity 100    
Minimum Humidity 57    
Precipitation  
Precipitation 0.00 in - - ()
Sea Level Pressure  
Sea Level Pressure 29.95 in    
Wind  
Wind Speed 11 mph (South)    
Max Wind Speed 17 mph    
Max Gust Speed 25 mph    
Visibility 10 miles    
Events      
Averages and records for this station are not official NWS values.
T = Trace of Precipitation, MM = Missing Value Source: NWS Daily Summary

Daily Weather History Graph

Daily Weather History Graph

Search for Another Location

Airport or City:

Astronomy

Sep. 26, 2011 Rise Set
Actual Time 7:21 AM EDT 7:21 PM EDT
Civil Twilight 6:55 AM EDT 7:47 PM EDT
Nautical Twilight 6:24 AM EDT 8:17 PM EDT
Astronomical Twilight 5:54 AM EDT 8:47 PM EDT
Moon 6:19 AM EDT (9/26) 6:36 PM EDT (9/26)
Length of Visible Light 12h 52m
Length of Day
12h 00m
Waning Crescent, 1% of the Moon is Illuminated
Sep 26
Waning Crescent
Sep 27
New
Oct 3
First Quarter
Oct 11
Full
Oct 19
Last Quarter

Hourly Weather History & Observations

Time (EDT) Temp. Dew Point Humidity Pressure Visibility Wind Dir Wind Speed Gust Speed Precip Events Conditions
12:15 AM 66.2 °F 59.0 °F 78% 30.00 in 10.0 mi South 10.4 mph 19.6 mph N/A   Clear
12:35 AM 66.2 °F 59.0 °F 78% 30.00 in 10.0 mi South 9.2 mph - N/A   Clear
12:55 AM 66.2 °F 59.0 °F 78% 30.00 in 10.0 mi South 10.4 mph - N/A   Clear
1:15 AM 66.2 °F 59.0 °F 78% 30.00 in 10.0 mi South 9.2 mph - N/A   Clear
1:35 AM 66.2 °F 59.0 °F 78% 29.99 in 10.0 mi SSE 9.2 mph - N/A   Clear
1:55 AM 66.2 °F 59.0 °F 78% 29.98 in 10.0 mi SSE 6.9 mph - N/A   Clear
2:15 AM 66.2 °F 59.0 °F 78% 29.98 in 10.0 mi SSE 8.1 mph - N/A   Clear
2:35 AM 66.2 °F 59.0 °F 78% 29.97 in 10.0 mi SSE 10.4 mph 16.1 mph N/A   Clear
2:55 AM 64.4 °F 59.0 °F 83% 29.96 in 10.0 mi SSE 12.7 mph - N/A   Clear
3:15 AM 64.4 °F 59.0 °F 83% 29.96 in 10.0 mi SSE 9.2 mph - N/A   Clear
3:35 AM 64.4 °F 59.0 °F 83% 29.94 in 10.0 mi SSE 6.9 mph - N/A   Clear
3:55 AM 64.4 °F 59.0 °F 83% 29.94 in 10.0 mi SSE 10.4 mph - N/A   Clear
4:15 AM 66.2 °F 59.0 °F 78% 29.94 in 10.0 mi SSE 16.1 mph 21.9 mph N/A   Clear
4:35 AM 66.2 °F 59.0 °F 78% 29.93 in 10.0 mi SSE 17.3 mph 21.9 mph N/A   Clear
4:55 AM 66.2 °F 59.0 °F 78% 29.94 in 10.0 mi SSE 15.0 mph - N/A   Clear
5:15 AM 66.2 °F 59.0 °F 78% 29.94 in 10.0 mi SSE 13.8 mph 20.7 mph N/A   Clear
5:35 AM 66.2 °F 60.8 °F 83% 29.95 in 10.0 mi SSE 13.8 mph 19.6 mph N/A   Clear
5:55 AM 66.2 °F 60.8 °F 83% 29.94 in 10.0 mi South 13.8 mph 18.4 mph N/A   Clear
6:15 AM 66.2 °F 60.8 °F 83% 29.94 in 10.0 mi SSE 13.8 mph 20.7 mph N/A   Clear
6:35 AM 66.2 °F 60.8 °F 83% 29.94 in 10.0 mi SSE 12.7 mph 18.4 mph N/A   Clear
6:55 AM 66.2 °F 60.8 °F 83% 29.95 in 10.0 mi SSE 13.8 mph 20.7 mph N/A   Clear
7:15 AM 66.2 °F 60.8 °F 83% 29.94 in 10.0 mi SSE 12.7 mph 20.7 mph N/A   Clear
7:35 AM 66.2 °F 60.8 °F 83% 29.94 in 10.0 mi SSE 15.0 mph 19.6 mph N/A   Clear
8:15 AM 68.0 °F 60.8 °F 78% 29.94 in 10.0 mi SSE 13.8 mph 19.6 mph N/A   Clear
8:35 AM 68.0 °F 60.8 °F 78% 29.94 in 10.0 mi SSE 11.5 mph 18.4 mph N/A   Clear
8:55 AM 68.0 °F 60.8 °F 78% 29.95 in 10.0 mi SSE 12.7 mph 19.6 mph N/A   Clear
9:15 AM 68.0 °F 60.8 °F 78% 29.95 in 10.0 mi South 13.8 mph 20.7 mph N/A   Clear
9:35 AM 69.8 °F 60.8 °F 73% 29.96 in 10.0 mi South 12.7 mph 20.7 mph N/A   Clear
9:55 AM 69.8 °F 62.6 °F 78% 29.95 in 10.0 mi South 13.8 mph - N/A   Clear
10:15 AM 69.8 °F 62.6 °F 78% 29.96 in 10.0 mi SSE 12.7 mph - N/A   Clear
10:35 AM 69.8 °F 62.6 °F 78% 29.95 in 10.0 mi South 10.4 mph - N/A   Clear
11:15 AM 71.6 °F 62.6 °F 73% 29.96 in 10.0 mi South 13.8 mph 20.7 mph N/A   Clear
11:35 AM 73.4 °F 62.6 °F 69% 29.95 in 10.0 mi South 13.8 mph 25.3 mph N/A   Clear
11:55 AM 75.2 °F 64.4 °F 69% 29.95 in 10.0 mi South 12.7 mph 25.3 mph N/A   Scattered Clouds
12:15 PM 75.2 °F 62.6 °F 65% 29.96 in 10.0 mi South 13.8 mph 23.0 mph N/A   Scattered Clouds
12:35 PM 75.2 °F 62.6 °F 65% 29.95 in 10.0 mi South 17.3 mph 24.2 mph N/A   Scattered Clouds
12:55 PM 77.0 °F 62.6 °F 61% 29.95 in 10.0 mi South 17.3 mph 21.9 mph N/A   Scattered Clouds
1:15 PM 77.0 °F 62.6 °F 61% 29.95 in 10.0 mi South 15.0 mph 20.7 mph N/A   Scattered Clouds
1:35 PM 78.8 °F 62.6 °F 57% 29.95 in 10.0 mi South 11.5 mph 21.9 mph N/A   Scattered Clouds
1:55 PM 77.0 °F 60.8 °F 57% 29.94 in 10.0 mi South 11.5 mph 16.1 mph N/A   Scattered Clouds
2:15 PM 77.0 °F 60.8 °F 57% 29.93 in 10.0 mi SSW 16.1 mph 21.9 mph N/A   Mostly Cloudy
2:35 PM 77.0 °F 60.8 °F 57% 29.93 in 10.0 mi South 13.8 mph 21.9 mph N/A   Mostly Cloudy
2:55 PM 78.8 °F 62.6 °F 57% 29.92 in 10.0 mi South 11.5 mph 17.3 mph N/A   Scattered Clouds
3:15 PM 77.0 °F 60.8 °F 57% 29.92 in 10.0 mi SSW 12.7 mph 17.3 mph N/A   Clear
3:35 PM 77.0 °F 60.8 °F 57% 29.91 in 10.0 mi South 11.5 mph 17.3 mph N/A   Clear
3:55 PM 75.2 °F 60.8 °F 61% 29.91 in 10.0 mi South 9.2 mph - N/A   Mostly Cloudy
4:15 PM 75.2 °F 62.6 °F 65% 29.90 in 10.0 mi SSW 6.9 mph - N/A   Overcast
4:35 PM 75.2 °F 62.6 °F 65% 29.90 in 10.0 mi SSW 8.1 mph - N/A   Overcast
4:55 PM 73.4 °F 62.6 °F 69% 29.90 in 10.0 mi SSW 3.5 mph - N/A   Overcast
5:15 PM 73.4 °F 62.6 °F 69% 29.91 in 10.0 mi SW 8.1 mph - N/A   Overcast
5:35 PM 71.6 °F 64.4 °F 78% 29.91 in 10.0 mi WSW 8.1 mph - N/A   Overcast
5:55 PM 69.8 °F 64.4 °F 83% 29.92 in 10.0 mi SW 4.6 mph - N/A   Overcast
6:15 PM 68.0 °F 64.4 °F 88% 29.92 in 10.0 mi NNE 5.8 mph - N/A   Overcast
6:35 PM 64.4 °F 62.6 °F 94% 29.94 in 5.0 mi NW 5.8 mph - N/A   Overcast
6:55 PM 62.6 °F 62.6 °F 100% 29.96 in 1.5 mi WSW 6.9 mph - N/A   Overcast
7:15 PM 64.4 °F 62.6 °F 94% 29.95 in 2.0 mi WSW 15.0 mph 21.9 mph N/A   Overcast
7:35 PM 64.4 °F 62.6 °F 94% 29.95 in 10.0 mi SW 9.2 mph - N/A   Overcast
7:55 PM 62.6 °F 62.6 °F 100% 29.96 in 4.0 mi SW 11.5 mph - N/A   Overcast
8:15 PM 62.6 °F 62.6 °F 100% 29.96 in 7.0 mi SW 6.9 mph - N/A   Overcast
8:35 PM 62.6 °F 62.6 °F 100% 29.95 in 10.0 mi South 6.9 mph - N/A   Overcast
8:55 PM 62.6 °F 62.6 °F 100% 29.96 in 10.0 mi SW 9.2 mph - N/A   Overcast
9:35 PM 62.6 °F 60.8 °F 94% 29.97 in 10.0 mi SW 10.4 mph - N/A   Overcast
9:55 PM 62.6 °F 60.8 °F 94% 29.97 in 5.0 mi SSW 10.4 mph - N/A   Overcast
10:15 PM 62.6 °F 60.8 °F 94% 29.97 in 5.0 mi SSW 6.9 mph - N/A   Overcast
10:35 PM 62.6 °F 60.8 °F 94% 29.97 in 10.0 mi SW 9.2 mph - N/A   Overcast
10:55 PM 62.6 °F 60.8 °F 94% 29.96 in 10.0 mi SW 5.8 mph - N/A   Overcast
11:15 PM 62.6 °F 62.6 °F 100% 29.96 in 4.0 mi WSW 5.8 mph - N/A   Overcast
11:35 PM 62.6 °F 62.6 °F 100% 29.97 in 7.0 mi SSW 5.8 mph - N/A   Overcast
11:55 PM 62.6 °F 62.6 °F 100% 29.96 in 7.0 mi WSW 5.8 mph - N/A   Overcast